Flag for Malaysia Weather past 2 weeks in Kuching, Malaysia

Now
82 °F

Partly sunny.


Feels Like: 89 °F
Forecast: 78 / 91 °F
Wind: 3 mph from Southwest

Location: Kuching Airport

Current Time: Jul 31, 2014 at 10:28:58 AM

Latest Report: Jul 31, 2014 at 10:00 AM


Visibility: 2 mi

Pressure: 29.86 "Hg

Humidity: 79%

Dew point: 75 °F

Location of KuchingLocation

Historic Weather in Kuching — Graph

°F

Kuching temperature yesterday

Maximum temperature yesterday: 95 °F (at 2:30 PM)
Minimum temperature yesterday: 75 °F (at 11:00 PM)
Average temperature yesterday: 83 °F

Past Weeks' High & Low Weather Summary

 TemperatureHumidityPressure
High99 °F (Jul 26, 4:00 PM)100% (Jul 24, 9:00 PM)29.89 "Hg (Jul 24, 9:00 PM)
Low75 °F (Jul 17, 5:00 AM)32% (Jul 27, 1:30 PM)29.71 "Hg (Jul 17, 4:00 PM)
Average85 °F74%29.80 "Hg
* Reported Jul 16 9:00 AM — Jul 31 9:00 AM, Kuching, Weather by CustomWeather, © 2014

Note: Actual official high and low records may vary slightly from our data, if they occured in-between our weather recording intervals... More about our weather records

Advertising

Kuching weather history for previous 24 hours

 ConditionsComfort  
Time TempWeatherWind HumidityBarometerVisibility
9:00 AM
Jul 31
79 °FPartly sunny.3 mph84%29.86 "Hg2 mi
8:30 AM77 °FPartly sunny.No wind89%29.86 "Hg1 mi
8:00 AM77 °FPartly sunny.2 mph83%29.83 "Hg1 mi
7:30 AM75 °FPartly sunny.2 mph89%29.83 "Hg1 mi
7:00 AM75 °FPartly sunny.1 mph89%29.80 "Hg1 mi
6:30 AM75 °FPartly cloudy.3 mph89%29.80 "Hg1 mi
6:00 AM75 °FPartly cloudy.5 mph89%29.80 "Hg2 mi
5:30 AM75 °FPartly cloudy.2 mph89%29.80 "Hg4 mi
5:00 AM75 °FPartly cloudy.3 mph89%29.80 "HgN/A
4:30 AM75 °FPartly cloudy.6 mph89%29.83 "HgN/A
4:00 AM75 °FPartly cloudy.No wind89%29.83 "HgN/A
3:30 AM75 °FPartly cloudy.1 mph89%29.80 "HgN/A
3:00 AM75 °FPartly cloudy.1 mph89%29.80 "HgN/A
2:30 AM75 °FPartly cloudy.3 mph83%29.80 "HgN/A
1:30 AM75 °FPartly cloudy.3 mph83%29.83 "HgN/A
1:00 AM75 °FPartly cloudy.2 mph89%29.83 "HgN/A
12:30 AM75 °FPartly cloudy.6 mph83%29.86 "HgN/A
12:00 AM75 °FPartly cloudy.6 mph83%29.86 "HgN/A
11:30 PM
Jul 30
75 °FLight rain. Partly cloudy.3 mph89%29.83 "Hg5 mi
11:00 PM75 °FLight rain. Mostly cloudy.2 mph89%29.83 "Hg5 mi
10:30 PM77 °FThunderstorms. Mostly cloudy.6 mph79%29.83 "Hg5 mi
10:00 PM77 °FThunderstorms. Mostly cloudy.6 mph83%29.83 "Hg5 mi
9:30 PM77 °FThunderstorms. Mostly cloudy.8 mph83%29.83 "Hg2 mi
9:00 PM77 °FStrong thunderstorms. Mostly cloudy.14 mph89%29.83 "Hg1 mi
8:30 PM77 °FThunderstorms. Partly cloudy.16 mph83%29.80 "Hg5 mi
8:00 PM77 °FThunderstorms. Mostly cloudy.5 mph89%29.77 "Hg4 mi
7:30 PM79 °FStrong thunderstorms. Partly cloudy.10 mph84%29.77 "Hg1 mi
7:00 PM82 °FThunderstorms. Partly cloudy.12 mph79%29.74 "Hg1 mi
6:30 PM82 °FThunderstorms. Broken clouds.6 mph70%29.74 "Hg3 mi
6:00 PM81 °FThunderstorms. Broken clouds.8 mph70%29.74 "Hg3 mi
5:30 PM82 °FThunderstorms. Broken clouds.8 mph70%29.71 "Hg3 mi
5:00 PM86 °FThunderstorms. Broken clouds.9 mph62%29.71 "Hg2 mi
4:30 PM93 °FBroken clouds.8 mph49%29.71 "Hg4 mi
4:00 PM95 °FBroken clouds.6 mph44%29.71 "Hg4 mi
3:30 PM93 °FBroken clouds.5 mph49%29.71 "Hg4 mi
3:00 PM95 °FBroken clouds.6 mph47%29.71 "Hg4 mi
2:30 PM95 °FBroken clouds.7 mph47%29.71 "Hg4 mi
2:00 PM93 °FBroken clouds.7 mph49%29.74 "Hg4 mi
1:30 PM93 °FBroken clouds.6 mph47%29.74 "Hg4 mi
1:00 PM91 °FBroken clouds.6 mph52%29.77 "Hg4 mi
12:30 PM91 °FBroken clouds.8 mph52%29.77 "Hg4 mi
12:00 PM91 °FBroken clouds.9 mph52%29.80 "Hg3 mi
11:30 AM90 °FPartly sunny.7 mph59%29.80 "Hg3 mi
11:00 AM88 °FPartly sunny.9 mph62%29.80 "Hg3 mi
10:30 AM88 °FPartly sunny.9 mph62%29.83 "Hg3 mi
10:00 AM86 °FPartly sunny.10 mph66%29.83 "Hg3 mi
Weather by CustomWeather, © 2014

See weather overviewHow to use our weather pages